Flag for Germany Weather past 2 weeks in Hürth, North Rhine-Westphalia, Germany

Now
79 °F

Partly sunny.


Feels Like: 81 °F
Forecast: 64 / 83 °F
Wind: 9 mph from North

Location: Noervenich

Current Time: Jul 22, 2014 at 10:01:10 PM

Latest Report: Jul 22, 2014 at 6:20 PM


Visibility: N/A

Pressure: 30.04 "Hg

Humidity: 61%

Dew point: 64 °F

Location of HürthLocation

Historic Weather in Hürth — Graph

°F

Hürth temperature yesterday

Maximum temperature yesterday: 68 °F (at 1:20 AM)
Minimum temperature yesterday: 64 °F (at 10:20 AM)
Average temperature yesterday: 67 °F

Past Weeks' High & Low Weather Summary

 TemperatureHumidityPressure
High93 °F (Jul 18, 5:20 PM)100% (Jul 8, 9:00 AM)30.18 "Hg (Jul 8, 9:00 AM)
Low54 °F (Jul 9, 1:20 AM)28% (Jul 18, 5:20 PM)29.68 "Hg (Jul 9, 3:01 PM)
Average68 °F79%29.94 "Hg
* Reported Jul 7 6:20 PM — Jul 22 6:20 PM, Hürth, Weather by CustomWeather, © 2014

Note: Actual official high and low records may vary slightly from our data, if they occured in-between our weather recording intervals... More about our weather records

Advertising

Hürth weather history for previous 24 hours

 ConditionsComfort  
Time TempWeatherWind HumidityBarometerVisibility
6:20 PM
Jul 22
79 °FPartly sunny.9 mph61%30.04 "HgN/A
5:20 PM79 °FPartly sunny.7 mph61%30.04 "HgN/A
5:03 PM79 °FPartly sunny.7 mph61%30.04 "HgN/A
4:20 PM77 °FBroken clouds.8 mph65%30.04 "HgN/A
3:20 PM77 °FBroken clouds.8 mph65%30.04 "HgN/A
2:20 PM75 °FPartly sunny.8 mph69%30.04 "HgN/A
1:20 PM73 °FBroken clouds.10 mph74%30.04 "HgN/A
12:20 PM75 °FBroken clouds.8 mph69%30.04 "Hg6 mi
11:20 AM73 °FFog.6 mph78%30.04 "Hg3 mi
10:20 AM70 °FFog.7 mph88%30.04 "Hg2 mi
9:20 AM66 °FFog.6 mph100%30.04 "Hg1 mi
8:20 AM66 °FFog.5 mph100%30.01 "Hg1 mi
8:00 AM66 °FFog.6 mph100%30.01 "Hg1 mi
7:20 AM66 °FFog.5 mph100%30.01 "Hg1 mi
6:20 AM66 °FFog.5 mph100%29.98 "Hg0 mi
5:20 AM66 °FFog.6 mph94%29.98 "Hg0 mi
4:20 AM66 °FFog.5 mph94%29.98 "Hg0 mi
3:20 AM66 °FFog.5 mph94%29.98 "Hg0 mi
2:20 AM66 °FFog.5 mph94%29.98 "Hg0 mi
1:20 AM66 °FFog.5 mph94%29.98 "Hg1 mi
12:50 AM66 °FFog.5 mph94%29.98 "Hg1 mi
12:20 AM66 °FFog.6 mph94%29.98 "Hg1 mi
11:20 PM
Jul 21
66 °FFog.5 mph100%29.98 "Hg2 mi
10:20 PM66 °FRain showers. Fog.7 mph100%29.98 "Hg2 mi
Weather by CustomWeather, © 2014

See weather overviewHow to use our weather pages